Regional Weather Roundup
Issued by NWS

Home | Current Version | Previous Version | Graphics & Text | Print | Product List | Glossary On
Versions: 1 2 3 4 5 6 7 8 9 10 11 12 13 14 15 16 17 18 19 20 21 22 23 24 25 26 27 28 29 30 31 32 33 34 35 36 37 38 39 40 41 42 43 44 45 46 47 48 49 50
000
ASUS43 KFSD 170802
RWRSD

WEATHER ROUNDUP FOR SOUTH DAKOTA
NATIONAL WEATHER SERVICE SIOUX FALLS SD
300 AM CDT THU AUG 17 2017

NOTE: "FAIR" INDICATES FEW OR NO CLOUDS BELOW 12,000 FEET WITH NO
SIGNIFICANT WEATHER AND/OR OBSTRUCTIONS TO VISIBILITY.


SDZ001>005-009-010-012>017-170900-
NORTHWEST AND NORTH CENTRAL SOUTH DAKOTA

CITY           SKY/WX    TMP DP  RH WIND       PRES   REMARKS
BUFFALO          N/A     59  49  69 S10       29.86F
FAITH            N/A     57  49  74 S10       29.94F
MOBRIDGE       CLEAR     57  55  93 N3        29.88F
$$

SDZ012>016-024>037-041>051-057-063-072>074-170900-
SOUTHWEST AND SOUTH CENTRAL SOUTH DAKOTA

CITY           SKY/WX    TMP DP  RH WIND       PRES   REMARKS
RAPID CTY ARPT CLEAR     55  50  83 SE6       29.97F
PIERRE         CLEAR     57  52  83 W6        29.90F
CUSTER         CLEAR     52  43  71 W6        30.10F
ELLSWORTH AFB  CLEAR     60  50  69 S7        29.96F
PHILIP         CLEAR     50  49  96 CALM      29.95F
PINE RIDGE     CLEAR     50  49  96 CALM      30.01F
SPEARFISH      FAIR      61  43  51 CALM      29.98F
WINNER         FAIR      58  51  78 W7        29.93S
$$

SDZ004>011-016>023-039-040-170900-
NORTHEAST SOUTH DAKOTA

CITY           SKY/WX    TMP DP  RH WIND       PRES   REMARKS
ABERDEEN       CLEAR     59  58  96 NW9       29.83F
WATERTOWN      CLOUDY    63  62  97 NW17G23   29.76F
BROOKINGS      CLOUDY    64  62  93 NW18G25   29.75S
SISSETON         N/A     64  63  96 NW14      29.75S
$$

SDZ017-020-022-023-036>040-048>070-170900-
SOUTHEAST SOUTH DAKOTA

CITY           SKY/WX    TMP DP  RH WIND       PRES   REMARKS
SIOUX FALLS    CLOUDY    66  66 100 NW15G23   29.75F
HURON          CLEAR     59  58  96 NW9       29.83R
CHAMBERLAIN    CLEAR     59  58  97 W9        29.89S
MITCHELL       CLEAR     61  59  93 W10       29.83S
YANKTON        CLOUDY    64  61  90 W15       29.81S
$$

ABBREVIATIONS USED IN REMARKS
   TC - TEMPERATURE IN CELSIUS
  WCI - WIND CHILL INDEX
   HX - HEAT INDEX
  VSB - VISIBILITY





USA.gov is the U.S. government's official web portal to all federal, state and local government web resources and services.